map of LCA home
LCA - Airport
Location
City:  Larnaca, Cyprus
ICAO:LCLK
IATA:LCA

Details
Type:Airport (Aerodrome, Airfield)
Use:Public/Civil, International (customs port of entry)
Latitude:3452'30"N (34.875117)
Longitude:3337'29"E (33.624850)
Datum:WGS 1984
Elevation:8 ft (2 m)
Variation:5.08E (WMM2015 magnetic declination)
0.09 annual change
Runways:1
Longest:9776 × 148 ft (2980 × 45 m), paved

Time
Time Zone:UTC+2 (DST+3)
Local Time:

Weather
METAR:LCLK 132130Z 34005KT CAVOK 08/05 Q1025 NOSIG
TAF:LCLK 131730Z 1318/1418 30005KT 9999 FEW025 SCT050 PROB40
TEMPO 1404/1409 5000 SHRA PROB30
TEMPO 1405/1408 VRB15G25KT 2000 +SHRA TS FEW030CB
BECMG 1405/1409 18013KT
BECMG 1415/1418 30006KT

Related Locations
Nearby:
Farthest:RVV: 11669 mi / 18780 km
Raivavae, Tubuai Islands, Austral Islands, PF

Find:

   beyond  
but within

Other Information
Maps:
NOTAMs:
Links:
Sources:

  
  • flag of Cyprus
  

Sectional Chart

Flight Planning
at skyvector.com

Satellite Image

Google Maps Satellite view

 

Copyright © 2004-2018 Karl L. Swartz. All rights reserved.
The Great Circle Mapper name and logo are trademarks of the Great Circle Mapper.
All other trademarks mentioned herein belong to their respective owners.
Please see credits for attibutions and further copyright information.

  Follow gcmap on Facebook Follow gcmap on Twitter Follow gcmap on Google+ GCmap on LinkedIn

hCard Microformat

Geo Microformat